Regional Weather Roundup
Issued by NWS

Home | Current Version | Previous Version | Graphics & Text | Print | Product List | Glossary On
Versions: 1 2 3 4 5 6 7 8 9 10 11 12 13 14 15 16 17 18 19 20 21 22 23 24 25 26 27 28 29 30 31 32 33 34 35 36 37 38 39 40 41 42 43 44 45 46 47 48 49 50
812
ASUS44 KLIX 230001
RWRLA
LOUISIANA WEATHER ROUNDUP
NATIONAL WEATHER SERVICE NEW ORLEANS LA
700 PM CDT MON SEP 22 2014

NOTE: "FAIR" INDICATES FEW OR NO CLOUDS BELOW 12,000 FEET WITH NO
      SIGNIFICANT WEATHER AND/OR OBSTRUCTIONS TO VISIBILITY.
      SKY/WX - SKY CONDITION AND SIGNIFICANT WEATHER.
      TMP - AIR TEMPERATURE.    DP   - DEWPOINT TEMPERATURE.
      RH  - RELATIVE HUMIDITY.  PRES - PRESSURE.
      HX  - HEAT INDEX.         WCI  - WIND CHILL INDEX.

*  THESE STATIONS ARE NOT NWS OR FAA STATIONS AND ARE NOT UNDER
   NWS QUALITY CONTROL.

LAZ040-048-061>063-065-066-069-230100-
SOUTHEAST LOUISIANA

CITY           SKY/WX    TMP DP  RH WIND       PRES   REMARKS
N.O. AUDUBON   NOT AVBL
N.O. INTL ARPT PTCLDY    84  65  52 NE16      29.98R
6HR MIN TEMP:  84; 6HR MAX TEMP:  90;

N.O. LAKEFRONT PTCLDY    84  68  58 N20       29.99R
6HR MIN TEMP:  84; 6HR MAX TEMP:  89;

N.O. DOWNTOWN* FAIR      84  64  51 N8G17     29.99R
6HR MIN TEMP:  84; 6HR MAX TEMP:  90;

SLIDELL        CLEAR     78  65  63 N5        29.99R
6HR MIN TEMP:  78; 6HR MAX TEMP:  90;

BATON ROUGE    CLEAR     79  60  52 CALM      30.02R
6HR MIN TEMP:  79; 6HR MAX TEMP:  89;

BOOTHVILLE     PTCLDY    83  73  72 NE6       29.98R
6HR MIN TEMP:  83; 6HR MAX TEMP:  87;

BELLE CHASSE   MOCLDY    81  68  64 NE9       29.98R
6HR MIN TEMP:  80; 6HR MAX TEMP:  91; 6HR PCP: TRACE;

BOGALUSA*      FAIR      77  56  48 NE5       30.03S
6HR MIN TEMP:  77; 6HR MAX TEMP:  88;

GALLIANO*      NOT AVBL
NEW ROADS*     FAIR      78  59  52 N9        30.03S
6HR MIN TEMP:  78; 6HR MAX TEMP:  87;

GONZALES*      FAIR      82  65  57 N5        30.00R
6HR MIN TEMP:  82; 6HR MAX TEMP:  89;

HAMMOND*       NOT AVBL
HOUMA*         PTCLDY    81  64  57 N6        29.97S
PORT FOURCHON* CLOUDY    84  72  65 E6        30.00R

$$

LAZ041-044-053-054-230100-
SOUTHWEST LOUISIANA

CITY           SKY/WX    TMP DP  RH WIND       PRES   REMARKS
LAKE CHARLES   CLEAR     81  65  58 NE9       30.02R
6HR MIN TEMP:  81; 6HR MAX TEMP:  89;

LAFAYETTE      CLEAR     80  61  52 N14       30.02R
6HR MIN TEMP:  80; 6HR MAX TEMP:  90;

PATTERSON      CLOUDY    82  72  69 N7        30.02R
6HR MIN TEMP:  82; 6HR MAX TEMP:  91;

SALT POINT       N/A     85  72  65 N6        29.98R
6HR MIN TEMP:  85; 6HR MAX TEMP:  93; 6HR PCP:  0.01;

NEW IBERIA     CLEAR     81  62  52 N15       30.02R
6HR MIN TEMP:  81; 6HR MAX TEMP:  91;

CHENAULT AIRPK NOT AVBL

$$

LAZ027-028-230100-
CENTRAL LOUISIANA

CITY           SKY/WX    TMP DP  RH WIND       PRES   REMARKS
FORT POLK      NOT AVBL
ALEXANDRIA INT CLEAR     77  56  48 N7        30.05R
6HR MIN TEMP:  77; 6HR MAX TEMP:  86;

ALEXANDRIA     CLEAR     77  55  46 N5        30.06S
6HR MIN TEMP:  77; 6HR MAX TEMP:  87;


$$

LAZ001-002-230100-
NORTHWEST LOUISIANA

CITY           SKY/WX    TMP DP  RH WIND       PRES   REMARKS
SHREVEPORT     CLEAR     80  51  36 NE12      30.09S
6HR MIN TEMP:  80; 6HR MAX TEMP:  87;

BARKSDALE AFB  CLEAR     78  52  40 NE6       30.10S
6HR MIN TEMP:  78; 6HR MAX TEMP:  87;

DTN SHREVEPORT CLEAR     78  52  40 NE6       30.10S
6HR MIN TEMP:  78; 6HR MAX TEMP:  85;


$$

LAZ014-016-230100-
NORTHEAST LOUISIANA

CITY           SKY/WX    TMP DP  RH WIND       PRES   REMARKS
MONROE         CLEAR     75  52  44 N7        30.11R
6HR MIN TEMP:  75; 6HR MAX TEMP:  85;

TALLULAH       CLEAR     73  54  51 N6        30.08S
6HR MIN TEMP:  73; 6HR MAX TEMP:  86;


$$




USA.gov is the U.S. government's official web portal to all federal, state and local government web resources and services.